Le nostre stazioni meteo in Italia

Pubblicità
Il mio iltempo24.it
Luqa, Malta (16597): Temperatura & dewpoint: 12.01.2020 11:00:00 - 18.01.2020 11:00:00 (CET)Luqa, Malta (16597): velocità del vento & gusts: 12.01.2020 11:00:00 - 18.01.2020 11:00:00 (CET)Luqa, Malta (16597): direzione del vento: 12.01.2020 11:00:00 - 18.01.2020 11:00:00 (CET)Luqa, Malta (16597): reduced air pressure: 12.01.2020 11:00:00 - 18.01.2020 11:00:00 (CET)Luqa, Malta (16597): visibility: 12.01.2020 11:00:00 - 18.01.2020 11:00:00 (CET)Luqa, Malta (16597): precipitazioni: 12.01.2020 11:00:00 - 18.01.2020 11:00:00 (CET)
Data & Tempo tt [°C] td [°C] ff [km/h] ff [kn] fx [km/h] fx [kn] dd ppp [hPa] vv [km] rr [mm]
18.01.2020 11:00:00 14,0 7,0 26 14 - - N - 10 -
18.01.2020 10:00:00 14,5 6,5 21 11 - - N 1027,2 10 -
18.01.2020 09:00:00 14,0 7,0 15 8 - - NNO - 10 -
18.01.2020 08:00:00 13,0 7,0 9 5 - - NNO - 10 -
18.01.2020 07:00:00 11,6 6,5 15 8 - - N 1026,6 10 -
18.01.2020 06:00:00 11,0 6,0 11 6 - - NNO - 10 -
18.01.2020 05:00:00 11,0 7,0 11 6 - - NNO - 10 -
18.01.2020 04:00:00 11,4 6,6 13 7 - - NNO 1027,9 10 -
18.01.2020 03:00:00 11,0 7,0 13 7 - - NNO - 10 -
18.01.2020 02:00:00 11,0 6,0 15 8 - - NNO - 10 -
18.01.2020 01:00:00 12,8 6,5 21 11 - - NNO 1026,6 10 -
18.01.2020 00:00:00 12,0 7,0 22 12 - - NNO - 10 -
17.01.2020 23:00:00 12,0 7,0 22 12 - - N - 10 -
17.01.2020 22:00:00 13,0 7,0 16 9 - - NNO 1027,2 10 -
17.01.2020 21:00:00 13,0 6,0 18 10 - - NNO - 10 -
17.01.2020 20:00:00 13,0 7,0 16 9 - - NO - 10 -
17.01.2020 19:00:00 13,0 7,0 18 10 - - NNO - 10 -
17.01.2020 18:00:00 13,0 7,0 16 9 - - NNO - 10 -
17.01.2020 17:00:00 13,0 7,0 24 13 - - NNO - 10 -
17.01.2020 16:00:00 14,1 7,7 21 11 - - NNO 1026,1 10 -
17.01.2020 15:00:00 14,0 8,0 26 14 - - N - 10 -
17.01.2020 14:00:00 14,0 9,0 26 14 - - N - 10 -
17.01.2020 13:00:00 14,7 9,0 22 12 - - N 1026,5 10 -
17.01.2020 12:00:00 14,0 9,0 26 14 - - N - 10 -
17.01.2020 11:00:00 14,0 9,0 26 14 - - NNO - 10 -
17.01.2020 10:00:00 13,8 8,9 22 12 - - NNO 1027,7 10 -
17.01.2020 09:00:00 13,0 9,0 15 8 - - NNO - 10 -
17.01.2020 08:00:00 11,0 8,0 8 4 - - ONO - 10 -
17.01.2020 07:00:00 10,3 7,4 13 7 - - NO 1027,1 10 -
17.01.2020 06:00:00 10,0 7,0 9 5 - - ONO - 10 -
17.01.2020 05:00:00 11,0 8,0 13 7 - - NNO - 10 -
17.01.2020 04:00:00 11,7 8,1 16 9 - - NO 1027,1 10 -
17.01.2020 03:00:00 12,0 8,0 21 11 - - NO - 10 -
17.01.2020 02:00:00 11,0 8,0 13 7 - - NO - 10 -
17.01.2020 01:00:00 11,3 8,7 13 7 - - NO 1027,5 10 -
17.01.2020 00:00:00 11,3 8,7 13 7 21 11 NO 1027,5 10 0,0
16.01.2020 23:00:00 11,0 9,0 13 7 - - NO - 10 -
16.01.2020 22:00:00 11,3 8,7 11 6 - - ONO 1027,5 10 -
16.01.2020 21:00:00 10,0 8,0 13 7 - - NO - 10 -
16.01.2020 20:00:00 10,0 8,0 11 6 - - ONO - 10 -
16.01.2020 19:00:00 11,0 8,0 9 5 - - NO - 10 -
16.01.2020 18:00:00 11,0 9,0 11 6 - - NO - 10 -
16.01.2020 17:00:00 13,0 9,0 15 8 - - NO - 10 -
16.01.2020 16:00:00 14,7 9,4 16 9 - - NNE 1027,3 10 -
16.01.2020 15:00:00 14,0 10,0 15 8 - - NNE - 10 -
16.01.2020 14:00:00 15,0 10,0 15 8 - - N - 10 -
16.01.2020 13:00:00 15,8 8,0 16 9 - - N 1028,1 10 -
16.01.2020 12:00:00 16,0 9,0 18 10 - - N - 10 -
16.01.2020 11:00:00 15,0 10,0 18 10 - - N - 10 -
16.01.2020 10:00:00 14,5 12,0 16 9 - - N 1029,4 10 -
16.01.2020 09:00:00 14,0 11,0 13 7 - - N - 10 -
16.01.2020 08:00:00 11,0 9,0 11 6 - - NNO - 10 -
16.01.2020 07:00:00 10,4 9,1 15 8 - - NNO 1028,7 10 -
16.01.2020 06:00:00 10,0 9,0 11 6 - - NNO - 10 -
16.01.2020 05:00:00 10,0 9,0 11 6 - - NNO - 10 -
16.01.2020 04:00:00 10,2 9,1 11 6 - - NNO 1028,1 10 -
16.01.2020 03:00:00 9,0 8,0 15 8 - - N - 10 -
16.01.2020 02:00:00 10,0 8,0 9 5 - - NNO - 10 -
16.01.2020 01:00:00 10,4 8,9 8 4 - - N 1028,7 10 -
16.01.2020 00:00:00 10,0 9,0 9 5 - - NNO - 10 -
15.01.2020 23:00:00 10,0 8,0 5 3 - - NO - 10 -
15.01.2020 22:00:00 12,5 9,9 8 4 - - E 1029,2 10 -
15.01.2020 21:00:00 13,0 10,0 11 6 - - E - 10 -
15.01.2020 20:00:00 13,0 10,0 9 5 - - E - 10 -
15.01.2020 19:00:00 13,2 10,9 11 6 - - E 1028,8 10 -
15.01.2020 18:00:00 13,0 11,0 13 7 - - ENE - 10 -
15.01.2020 17:00:00 13,0 11,0 16 9 - - E - 10 -
15.01.2020 16:00:00 14,5 11,0 16 9 - - ENE 1027,2 10 -
15.01.2020 15:00:00 15,0 11,0 18 10 - - ENE - 10 -
15.01.2020 14:00:00 15,0 11,0 21 11 - - ENE - 10 -
15.01.2020 13:00:00 14,9 11,7 22 12 - - ENE 1027,3 10 -
15.01.2020 12:00:00 14,0 11,0 21 11 - - ENE - 10 -
15.01.2020 11:00:00 14,0 11,0 22 12 - - ENE - 10 -
15.01.2020 10:00:00 14,5 11,1 22 12 - - ENE 1027,9 10 -
15.01.2020 09:00:00 14,0 11,0 18 10 - - ENE - 10 -
15.01.2020 08:00:00 13,0 11,0 16 9 - - ENE - 10 -
15.01.2020 07:00:00 13,0 11,0 13 7 - - ENE - 10 -
15.01.2020 06:00:00 13,0 10,0 18 10 - - ENE - 10 -
15.01.2020 05:00:00 12,0 10,0 18 10 - - ENE - 10 -
15.01.2020 04:00:00 12,4 10,1 18 10 - - NE 1026,4 10 -
15.01.2020 03:00:00 12,0 10,0 15 8 - - NE - 10 -
15.01.2020 02:00:00 12,0 10,0 18 10 - - NE - 10 -
15.01.2020 01:00:00 12,0 10,0 16 9 - - NE - 10 -
15.01.2020 00:00:00 12,0 10,0 18 10 - - NE - 10 -
14.01.2020 23:00:00 13,0 10,0 15 8 - - NE - 10 -
14.01.2020 22:00:00 12,9 10,5 15 8 - - ENE 1026,5 10 -
14.01.2020 21:00:00 13,0 10,0 16 9 - - ENE - 10 -
14.01.2020 20:00:00 13,0 10,0 15 8 - - E - 10 -
14.01.2020 19:00:00 13,2 10,8 13 7 - - E 1026,3 10 -
14.01.2020 18:00:00 13,0 11,0 15 8 - - ENE - 10 -
14.01.2020 17:00:00 13,0 11,0 18 10 - - ENE - 10 -
14.01.2020 16:00:00 14,6 10,7 21 11 - - E 1024,4 10 -
14.01.2020 15:00:00 14,0 11,0 22 12 - - E - 10 -
14.01.2020 14:00:00 15,0 11,0 18 10 - - E - 10 -
14.01.2020 13:00:00 14,0 11,0 24 13 - - ENE - 10 -
14.01.2020 12:00:00 14,0 11,0 22 12 - - ENE - 10 -
14.01.2020 11:00:00 14,0 12,0 21 11 - - ENE - 10 -
14.01.2020 10:00:00 13,6 12,2 16 9 - - E 1025,3 10 -
14.01.2020 09:00:00 13,0 11,0 15 8 - - E - 10 -
14.01.2020 08:00:00 10,0 10,0 8 4 - - E - 10 -
14.01.2020 07:00:00 9,0 9,0 5 3 - - ENE - 10 -
14.01.2020 06:00:00 9,0 9,0 8 4 - - NE - 10 -
14.01.2020 05:00:00 9,0 9,0 5 3 - - NE - 10 -
14.01.2020 04:00:00 9,7 8,8 9 5 - - SE 1023,6 10 -
14.01.2020 03:00:00 9,0 9,0 5 3 - - SE - 10 -
14.01.2020 02:00:00 9,0 9,0 5 3 - - NE - 10 -
14.01.2020 01:00:00 9,8 9,1 9 5 - - E 1024,0 10 -
14.01.2020 00:00:00 9,0 9,0 8 4 - - NE - 10 -
13.01.2020 23:00:00 10,0 9,0 2 1 - - - - 10 -
13.01.2020 22:00:00 11,0 10,0 8 4 - - - 1023,8 10 -
13.01.2020 21:00:00 11,0 9,0 9 5 - - NE - 10 -
13.01.2020 20:00:00 12,0 10,0 5 3 - - S - 10 -
13.01.2020 19:00:00 12,2 10,1 11 6 - - - - 10 -
13.01.2020 18:00:00 13,0 10,0 15 8 - - ESE - 10 -
13.01.2020 17:00:00 13,0 10,0 15 8 - - SE - 10 -
13.01.2020 16:00:00 12,9 9,8 13 7 - - SE 1022,0 10 -
13.01.2020 15:00:00 13,0 9,0 15 8 - - SE - 10 -
13.01.2020 14:00:00 14,0 10,0 18 10 - - SE - 10 -
13.01.2020 13:00:00 13,5 10,4 15 8 - - SE 1022,4 10 -
13.01.2020 12:00:00 13,0 10,0 8 4 - - E - 10 -
13.01.2020 11:00:00 12,0 10,0 9 5 - - ESE - 10 -
13.01.2020 10:00:00 12,4 10,2 16 9 - - SE 1023,4 10 -
13.01.2020 09:00:00 11,0 10,0 11 6 - - SE - 10 -
13.01.2020 08:00:00 11,0 10,0 18 10 - - S - 10 -
13.01.2020 07:00:00 12,8 10,0 21 11 - - ESE 1022,8 10 -
13.01.2020 06:00:00 13,0 10,0 16 9 - - E - 10 -
13.01.2020 05:00:00 12,0 9,0 16 9 - - ESE - 10 -
13.01.2020 04:00:00 12,7 9,5 16 9 - - ESE 1023,0 10 -
13.01.2020 03:00:00 12,0 9,0 16 9 - - ESE - 10 -
13.01.2020 02:00:00 12,0 9,0 16 9 - - ESE - 10 -
13.01.2020 01:00:00 12,0 9,0 16 9 - - ESE - 10 -
13.01.2020 00:00:00 12,0 9,0 16 9 - - ESE - 10 -
12.01.2020 23:00:00 12,0 9,0 15 8 - - ESE - 10 -
12.01.2020 22:00:00 12,0 9,1 15 8 - - ESE 1024,0 10 -
12.01.2020 21:00:00 12,0 9,0 13 7 - - E - 10 -
12.01.2020 20:00:00 12,0 9,0 11 6 - - ESE - 10 -
12.01.2020 19:00:00 12,0 9,0 15 8 - - ESE - 10 -
12.01.2020 18:00:00 12,0 9,0 13 7 - - ESE - 10 -
12.01.2020 17:00:00 12,0 8,0 11 6 - - ESE - 10 -
12.01.2020 16:00:00 14,3 9,8 16 9 - - ESE 1022,7 10 -
12.01.2020 15:00:00 14,0 10,0 18 10 - - SE - 10 -
12.01.2020 14:00:00 14,0 10,0 16 9 - - ESE - 10 -
12.01.2020 13:00:00 12,5 9,2 15 8 - - SE 1023,5 10 -
12.01.2020 12:00:00 13,0 10,0 13 7 - - SE - 10 -
12.01.2020 11:00:00 13,0 10,0 9 5 - - SSE - 8 -

tt = Temperatura
td = dewpoint
ff = velocità del vento
fx = gusts
dd = direzione del vento
ppp = reduced air pressure
vv = visibility
rr = precipitazioni

Stazioni seguenti

WeatherPro
AMSI
MeteoEarth